Flag for Senegal Weather past 2 weeks in Thiès, Senegal

Now
81 °F

Scattered clouds.


Feels Like: 86 °F
Forecast: N/A
Wind: 5 mph from West

Location: Dakar / Yoff

Current Time: Sep 1, 2015 at 7:20:06 PM

Latest Report: Sep 1, 2015 at 7:00 PM


Visibility: N/A

Pressure: 29.92 "Hg

Humidity: 84%

Dew point: 75 °F

Location of ThièsLocation

Historic Weather in Thiès — Graph

°F

Thiès temperature yesterday

Maximum temperature yesterday: 86 °F (at 1:00 PM)
Minimum temperature yesterday: 79 °F (at 1:30 AM)
Average temperature yesterday: 82 °F

Past Weeks' High & Low Weather Summary

 TemperatureHumidityPressure
High90 °F (Aug 27, 12:00 PM)100% (Aug 18, 7:30 AM)30.01 "Hg (Aug 18, 7:30 AM)
Low75 °F (Aug 17, 7:30 PM)63% (Aug 27, 1:30 PM)29.77 "Hg (Aug 20, 5:30 PM)
Average82 °F84%29.87 "Hg
* Reported Aug 17 6:00 PM — Sep 1 6:00 PM, Thiès, Weather by CustomWeather, © 2015

Note: Actual official high and low records may vary slightly from our data, if they occured in-between our weather recording intervals... More about our weather records

Advertising

Thiès weather history for previous 24 hours

 ConditionsComfort  
Time TempWeatherWind HumidityBarometerVisibility
6:00 PM
Tue, Sep 1
81 °FScattered clouds.7 mph84%29.89 "HgN/A
5:30 PM81 °FScattered clouds.2 mph84%29.89 "HgN/A
5:00 PM82 °FScattered clouds.2 mph79%29.89 "HgN/A
4:30 PM81 °FScattered clouds.2 mph84%29.89 "HgN/A
4:00 PM82 °FScattered clouds.5 mph79%29.89 "HgN/A
3:30 PM82 °FScattered clouds.5 mph79%29.92 "HgN/A
3:00 PM81 °FScattered clouds.7 mph84%29.92 "HgN/A
2:30 PM81 °FScattered clouds.5 mph84%29.92 "HgN/A
2:00 PM81 °FBroken clouds.5 mph89%29.95 "HgN/A
1:30 PM79 °FLight rain. Broken clouds.5 mph89%29.95 "Hg6 mi
1:00 PM79 °FBroken clouds.5 mph94%29.98 "HgN/A
12:30 PM77 °FLight rain. Broken clouds.2 mph94%29.98 "Hg5 mi
12:00 PM77 °FLight rain. Broken clouds.2 mph94%29.98 "Hg6 mi
11:30 AM77 °FLight rain. Broken clouds.6 mph94%29.98 "Hg5 mi
11:00 AM77 °FLight rain. Broken clouds.2 mph94%30.01 "Hg4 mi
10:30 AM77 °FLight rain. Broken clouds.6 mph94%30.01 "Hg4 mi
10:00 AM77 °FLight rain. Broken clouds.8 mph89%30.01 "Hg4 mi
9:30 AM82 °FBroken clouds.6 mph84%29.98 "HgN/A
9:00 AM81 °FBroken clouds.7 mph84%29.98 "HgN/A
8:30 AM81 °FBroken clouds.7 mph84%29.98 "HgN/A
8:01 AM81 °FBroken clouds.7 mph84%29.95 "HgN/A
7:30 AM81 °FBroken clouds.7 mph84%29.95 "HgN/A
7:00 AM81 °FBroken clouds.6 mph84%29.95 "HgN/A
6:30 AM81 °FPassing clouds.5 mph84%29.92 "HgN/A
6:00 AM81 °FPassing clouds.5 mph84%29.92 "HgN/A
5:30 AM81 °FPassing clouds.6 mph84%29.92 "HgN/A
5:00 AM81 °FPassing clouds.6 mph84%29.92 "HgN/A
4:30 AM81 °FPassing clouds.5 mph84%29.92 "HgN/A
3:30 AM81 °FPassing clouds.6 mph84%29.95 "HgN/A
3:00 AM81 °FPartly cloudy.6 mph84%29.95 "HgN/A
2:30 AM81 °FPartly cloudy.6 mph84%29.95 "HgN/A
2:00 AM81 °FPartly cloudy.5 mph84%29.98 "HgN/A
1:30 AM81 °FPartly cloudy.6 mph84%29.98 "HgN/A
1:00 AM81 °FPassing clouds.5 mph84%29.98 "HgN/A
12:30 AM82 °FPassing clouds.6 mph79%29.98 "HgN/A
12:00 AM82 °FPassing clouds.7 mph79%30.01 "HgN/A
11:30 PM
Mon, Aug 31
82 °FPassing clouds.6 mph79%30.01 "HgN/A
11:00 PM81 °FPassing clouds.5 mph84%30.01 "HgN/A
9:30 PM82 °FPassing clouds.5 mph79%29.98 "HgN/A
9:00 PM82 °FPassing clouds.6 mph79%29.95 "HgN/A
8:30 PM82 °FPassing clouds.6 mph79%29.95 "HgN/A
8:00 PM82 °FPassing clouds.7 mph79%29.95 "HgN/A
7:30 PM82 °FPassing clouds.7 mph79%29.95 "HgN/A
7:00 PM82 °FScattered clouds.8 mph79%29.95 "HgN/A
Weather by CustomWeather, © 2015

See weather overviewHow to use our weather pages